WJA2312 CYYZ-TBPB

Flight info

Callsign WJA2312
Flight time 3h 39m
Altitude 35000
Route KEPTA3 BMPAH DCT AEVON DCT EXTOL Q140 ARRKK DCT JFK DCT SHIPP Y483 SHERL DCT ICCEY Y488 OHRYN Y482 SQUAD/M080F350 DCT DARUX L459 DASER DCT PIREX L462 ZABOR/M080F370 L462 DAWIN/N0468F370 L462 LAMKN/N0437F230 L462 ANU/N0466F370 UA632 BGI
Aircraft B38M/M-SDE1FGHILORVWXY/HB1

Departure

Time 2026-05-04 23:23
Airport Toronto Pearson International Airport (CYYZ)

Arrival

Time 2026-05-05 03:03
Airport Grantley Adams International Airport (TBPB)
Time Latitude Longitude Altitude Speed Heading
2026-05-04 22:57 43.68363 -79.62079 564 ft 0 kts 111°
2026-05-04 23:09 43.68372 -79.62110 567 ft 4 kts 111°
2026-05-04 23:09 43.68381 -79.62144 566 ft 3 kts 111°
2026-05-04 23:10 43.68395 -79.62173 569 ft 4 kts 150°
2026-05-04 23:10 43.68419 -79.62179 571 ft 4 kts 190°
2026-05-04 23:10 43.68433 -79.62174 568 ft 0 kts 197°
2026-05-04 23:13 43.68420 -79.62180 570 ft 5 kts 197°
2026-05-04 23:13 43.68381 -79.62199 566 ft 7 kts 203°
2026-05-04 23:14 43.68341 -79.62238 567 ft 7 kts 229°
2026-05-04 23:14 43.68307 -79.62296 566 ft 8 kts 236°
2026-05-04 23:14 43.68289 -79.62372 571 ft 9 kts 251°
2026-05-04 23:14 43.68252 -79.62438 569 ft 9 kts 226°
2026-05-04 23:15 43.68210 -79.62497 571 ft 8 kts 218°
2026-05-04 23:15 43.68167 -79.62488 568 ft 6 kts 142°
2026-05-04 23:15 43.68124 -79.62436 566 ft 11 kts 138°
2026-05-04 23:15 43.68047 -79.62335 565 ft 18 kts 136°
2026-05-04 23:16 43.67956 -79.62216 565 ft 18 kts 137°
2026-05-04 23:16 43.67851 -79.62130 571 ft 17 kts 154°
2026-05-04 23:16 43.67766 -79.62037 568 ft 15 kts 137°
2026-05-04 23:16 43.67689 -79.61938 570 ft 15 kts 137°
2026-05-04 23:17 43.67610 -79.61833 569 ft 16 kts 136°
2026-05-04 23:17 43.67557 -79.61764 569 ft 16 kts 136°
2026-05-04 23:17 43.67472 -79.61653 568 ft 18 kts 136°
2026-05-04 23:17 43.67381 -79.61535 568 ft 18 kts 137°
2026-05-04 23:18 43.67291 -79.61418 566 ft 15 kts 137°
2026-05-04 23:18 43.67224 -79.61322 572 ft 12 kts 108°
2026-05-04 23:18 43.67263 -79.61208 564 ft 16 kts 53°
2026-05-04 23:18 43.67330 -79.61082 566 ft 17 kts 53°
2026-05-04 23:19 43.67401 -79.60954 566 ft 17 kts 53°
2026-05-04 23:19 43.67475 -79.60819 569 ft 18 kts 52°
2026-05-04 23:19 43.67562 -79.60699 573 ft 18 kts 46°
2026-05-04 23:19 43.67648 -79.60570 566 ft 18 kts 47°
2026-05-04 23:20 43.67735 -79.60444 569 ft 17 kts 47°
2026-05-04 23:20 43.67805 -79.60342 567 ft 15 kts 46°
2026-05-04 23:20 43.67878 -79.60237 569 ft 16 kts 46°
2026-05-04 23:20 43.67954 -79.60126 570 ft 16 kts 46°
2026-05-04 23:21 43.68024 -79.60025 566 ft 14 kts 46°
2026-05-04 23:21 43.68079 -79.59934 567 ft 10 kts 66°
2026-05-04 23:21 43.68053 -79.59852 562 ft 11 kts 138°
2026-05-04 23:21 43.67991 -79.59773 562 ft 12 kts 137°
2026-05-04 23:22 43.67926 -79.59711 571 ft 11 kts 184°
2026-05-04 23:22 43.67868 -79.59782 565 ft 14 kts 226°
2026-05-04 23:22 43.67697 -79.60030 569 ft 64 kts 226°
2026-05-04 23:22 43.67256 -79.60669 563 ft 117 kts 226°
2026-05-04 23:23 43.66593 -79.61631 566 ft 158 kts 226°
2026-05-04 23:23 43.65795 -79.62822 806 ft 173 kts 228°
2026-05-04 23:23 43.64986 -79.64074 1408 ft 175 kts 227°
2026-05-04 23:23 43.64155 -79.65251 2200 ft 167 kts 225°
2026-05-04 23:24 43.63276 -79.66465 2410 ft 192 kts 225°
2026-05-04 23:24 43.62284 -79.67835 2778 ft 207 kts 225°
2026-05-04 23:24 43.61268 -79.69236 3422 ft 212 kts 225°
2026-05-04 23:24 43.60174 -79.70750 3887 ft 226 kts 226°
2026-05-04 23:25 43.58980 -79.72172 4518 ft 233 kts 212°
2026-05-04 23:25 43.57403 -79.72821 5167 ft 247 kts 188°
2026-05-04 23:25 43.55655 -79.72418 5736 ft 265 kts 164°
2026-05-04 23:25 43.54089 -79.70977 6380 ft 283 kts 139°
2026-05-04 23:26 43.52990 -79.68667 7008 ft 296 kts 119°
2026-05-04 23:26 43.52328 -79.65934 7630 ft 304 kts 110°
2026-05-04 23:26 43.51738 -79.63122 8271 ft 307 kts 111°
2026-05-04 23:26 43.51132 -79.60280 8908 ft 310 kts 111°
2026-05-04 23:27 43.50516 -79.57413 9547 ft 314 kts 111°
2026-05-04 23:27 43.49891 -79.54512 10112 ft 317 kts 110°
2026-05-04 23:27 43.49252 -79.51567 10380 ft 334 kts 110°
2026-05-04 23:27 43.48564 -79.48412 10528 ft 353 kts 110°
2026-05-04 23:28 43.47836 -79.45077 10633 ft 373 kts 110°
2026-05-04 23:28 43.47075 -79.41591 10839 ft 388 kts 110°
2026-05-04 23:28 43.46880 -79.40696 10917 ft 390 kts 110°
2026-05-04 23:29 43.46411 -79.38551 11113 ft 396 kts 110°
2026-05-04 23:29 43.45612 -79.34890 11636 ft 400 kts 110°
2026-05-04 23:29 43.44808 -79.31210 12169 ft 405 kts 110°
2026-05-04 23:29 43.43990 -79.27471 12715 ft 409 kts 110°
2026-05-04 23:30 43.43165 -79.23707 13262 ft 414 kts 110°
2026-05-04 23:30 43.42340 -79.19946 13769 ft 418 kts 110°
2026-05-04 23:30 43.41494 -79.16102 14303 ft 421 kts 110°
2026-05-04 23:30 43.40642 -79.12233 14847 ft 424 kts 110°
2026-05-04 23:31 43.39778 -79.08319 15420 ft 428 kts 109°
2026-05-04 23:31 43.38910 -79.04394 15965 ft 431 kts 109°
2026-05-04 23:31 43.38035 -79.00443 16536 ft 433 kts 109°
2026-05-04 23:31 43.37153 -78.96465 17073 ft 437 kts 109°
2026-05-04 23:32 43.36259 -78.92444 17599 ft 441 kts 109°
2026-05-04 23:32 43.35360 -78.88410 18094 ft 444 kts 109°
2026-05-04 23:32 43.34450 -78.84330 18552 ft 447 kts 109°
2026-05-04 23:32 43.33532 -78.80225 18988 ft 450 kts 109°
2026-05-04 23:33 43.32600 -78.76098 19422 ft 453 kts 111°
2026-05-04 23:33 43.31439 -78.72134 19828 ft 455 kts 115°
2026-05-04 23:33 43.30194 -78.68123 20259 ft 458 kts 116°
2026-05-04 23:33 43.28932 -78.64093 20682 ft 461 kts 116°
2026-05-04 23:34 43.27658 -78.60047 21097 ft 464 kts 116°
2026-05-04 23:34 43.26371 -78.55968 21513 ft 467 kts 116°
2026-05-04 23:34 43.25076 -78.51875 21898 ft 470 kts 116°
2026-05-04 23:34 43.23768 -78.47744 22322 ft 472 kts 116°
2026-05-04 23:35 43.22454 -78.43601 22728 ft 476 kts 116°
2026-05-04 23:35 43.21130 -78.39430 23131 ft 479 kts 116°
2026-05-04 23:35 43.19795 -78.35240 23486 ft 481 kts 116°
2026-05-04 23:35 43.18106 -78.31306 23822 ft 477 kts 131°
2026-05-04 23:36 43.16040 -78.27731 24130 ft 480 kts 131°
2026-05-04 23:36 43.13956 -78.24155 24469 ft 481 kts 132°
2026-05-04 23:36 43.11869 -78.20623 24809 ft 483 kts 132°
2026-05-04 23:36 43.09741 -78.17052 25132 ft 485 kts 133°
2026-05-04 23:37 43.07598 -78.13467 25459 ft 487 kts 133°
2026-05-04 23:37 43.05449 -78.09879 25773 ft 489 kts 133°
2026-05-04 23:37 43.03282 -78.06265 26088 ft 491 kts 133°
2026-05-04 23:37 43.01112 -78.02651 26402 ft 493 kts 133°
2026-05-04 23:38 42.98925 -77.99012 26694 ft 495 kts 132°
2026-05-04 23:38 42.96736 -77.95375 27013 ft 496 kts 132°
2026-05-04 23:38 42.94539 -77.91729 27301 ft 499 kts 132°
2026-05-04 23:38 42.92427 -77.87950 27554 ft 504 kts 123°
2026-05-04 23:39 42.90957 -77.83598 27900 ft 507 kts 109°
2026-05-04 23:39 42.89933 -77.78984 28133 ft 510 kts 107°
2026-05-04 23:39 42.88948 -77.74326 28429 ft 511 kts 106°
2026-05-04 23:39 42.87986 -77.69653 28835 ft 510 kts 106°
2026-05-04 23:40 42.87042 -77.64998 29257 ft 509 kts 106°
2026-05-04 23:40 42.86116 -77.60403 29634 ft 508 kts 106°
2026-05-04 23:40 42.85180 -77.55764 29992 ft 507 kts 105°
2026-05-04 23:40 42.84245 -77.51136 30306 ft 506 kts 105°
2026-05-04 23:41 42.83308 -77.46515 30596 ft 506 kts 105°
2026-05-04 23:41 42.82368 -77.41887 30878 ft 506 kts 105°
2026-05-04 23:41 42.81426 -77.37261 31176 ft 506 kts 105°
2026-05-04 23:41 42.80484 -77.32638 31464 ft 506 kts 105°
2026-05-04 23:42 42.79540 -77.28024 31744 ft 506 kts 105°
2026-05-04 23:42 42.78595 -77.23412 32022 ft 505 kts 105°
2026-05-04 23:42 42.77650 -77.18808 32295 ft 505 kts 105°
2026-05-04 23:42 42.76702 -77.14205 32567 ft 505 kts 104°
2026-05-04 23:43 42.75749 -77.09590 32845 ft 505 kts 104°
2026-05-04 23:43 42.74797 -77.04984 33108 ft 505 kts 104°
2026-05-04 23:43 42.73857 -77.00450 33366 ft 504 kts 104°
2026-05-04 23:43 42.72900 -76.95845 33621 ft 504 kts 104°
2026-05-04 23:44 42.71945 -76.91259 33851 ft 504 kts 104°
2026-05-04 23:44 42.70989 -76.86674 34072 ft 503 kts 104°
2026-05-04 23:44 42.70041 -76.82140 34309 ft 503 kts 104°
2026-05-04 23:44 42.69083 -76.77573 34561 ft 501 kts 104°
2026-05-04 23:45 42.68126 -76.73017 34736 ft 502 kts 104°
2026-05-04 23:45 42.67167 -76.68450 34762 ft 502 kts 105°
2026-05-04 23:45 42.64735 -76.59622 34747 ft 498 kts 122°
2026-05-04 23:46 42.61144 -76.51546 34759 ft 499 kts 121°
2026-05-04 23:46 42.57542 -76.43484 34766 ft 498 kts 121°
2026-05-04 23:47 42.53930 -76.35462 34768 ft 498 kts 121°
2026-05-04 23:47 42.50337 -76.27501 34768 ft 498 kts 121°
2026-05-04 23:48 42.46711 -76.19487 34769 ft 498 kts 121°
2026-05-04 23:48 42.43082 -76.11487 34785 ft 498 kts 121°
2026-05-04 23:49 42.39469 -76.03547 34789 ft 497 kts 122°
2026-05-04 23:49 42.35836 -75.95581 34776 ft 497 kts 122°
2026-05-04 23:50 42.32197 -75.87624 34785 ft 496 kts 122°
2026-05-04 23:50 42.28584 -75.79741 34790 ft 496 kts 122°
2026-05-04 23:51 42.24933 -75.71799 34799 ft 497 kts 122°
2026-05-04 23:51 42.21270 -75.63850 34810 ft 497 kts 122°
2026-05-04 23:52 42.17633 -75.55975 34819 ft 497 kts 122°
2026-05-04 23:52 42.13963 -75.48052 34828 ft 497 kts 122°
2026-05-04 23:53 42.10290 -75.40141 34829 ft 498 kts 121°
2026-05-04 23:53 42.06521 -75.32392 34816 ft 496 kts 132°
2026-05-04 23:54 42.01386 -75.26238 34832 ft 495 kts 141°
2026-05-04 23:54 41.96095 -75.20301 34861 ft 494 kts 141°
2026-05-04 23:55 41.90809 -75.14448 34849 ft 494 kts 141°
2026-05-04 23:56 41.82826 -75.05640 34864 ft 494 kts 141°
2026-05-04 23:56 41.77505 -74.99785 34851 ft 495 kts 141°
2026-05-04 23:57 41.72209 -74.93971 34847 ft 495 kts 141°
2026-05-04 23:57 41.66875 -74.88128 34849 ft 495 kts 141°
2026-05-04 23:58 41.61544 -74.82301 34851 ft 495 kts 142°
2026-05-04 23:58 41.56234 -74.76509 34852 ft 494 kts 142°
2026-05-04 23:59 41.50912 -74.70718 34857 ft 494 kts 142°
2026-05-04 23:59 41.45581 -74.64929 34862 ft 493 kts 142°
2026-05-05 00:00 41.40246 -74.59149 34863 ft 493 kts 142°
2026-05-05 00:00 41.34940 -74.53412 34838 ft 494 kts 142°
2026-05-05 00:01 41.29604 -74.47656 34864 ft 493 kts 142°
2026-05-05 00:01 41.24264 -74.41908 34857 ft 493 kts 142°
2026-05-05 00:02 41.18960 -74.36211 34871 ft 493 kts 142°
2026-05-05 00:02 41.13619 -74.30485 34875 ft 493 kts 142°
2026-05-05 00:03 41.08278 -74.24774 34877 ft 492 kts 142°
2026-05-05 00:03 41.03853 -74.20051 34880 ft 491 kts 142°
2026-05-05 00:04 40.98534 -74.14384 34888 ft 491 kts 142°
2026-05-05 00:04 40.93229 -74.08745 34887 ft 491 kts 142°
2026-05-05 00:05 40.87886 -74.03077 34876 ft 491 kts 142°
2026-05-05 00:05 40.81679 -73.96508 34878 ft 491 kts 142°
2026-05-05 00:06 40.77241 -73.91822 34895 ft 491 kts 142°
2026-05-05 00:06 40.71917 -73.86207 34896 ft 491 kts 142°
2026-05-05 00:07 40.66579 -73.80589 34917 ft 491 kts 142°
2026-05-05 00:07 40.61730 -73.74334 34924 ft 488 kts 125°
2026-05-05 00:08 40.57591 -73.67206 34910 ft 489 kts 127°
2026-05-05 00:08 40.53468 -73.60079 34921 ft 490 kts 127°
2026-05-05 00:09 40.49368 -73.52986 34931 ft 490 kts 127°
2026-05-05 00:09 40.45251 -73.45879 34940 ft 490 kts 127°
2026-05-05 00:10 40.41119 -73.38762 34942 ft 490 kts 127°
2026-05-05 00:10 40.37002 -73.31686 34958 ft 490 kts 127°
2026-05-05 00:11 40.32850 -73.24572 34942 ft 490 kts 127°
2026-05-05 00:11 40.28690 -73.17481 34962 ft 489 kts 127°
2026-05-05 00:12 40.24693 -73.10337 34975 ft 488 kts 123°
2026-05-05 00:12 40.20903 -73.02932 34974 ft 489 kts 123°
2026-05-05 00:13 40.17072 -72.95561 34978 ft 489 kts 124°
2026-05-05 00:13 40.13258 -72.88247 34989 ft 488 kts 124°
2026-05-05 00:14 40.09419 -72.80904 34996 ft 488 kts 124°
2026-05-05 00:14 40.05598 -72.73612 34999 ft 488 kts 124°
2026-05-05 00:15 40.01751 -72.66289 35003 ft 488 kts 124°
2026-05-05 00:15 39.97905 -72.58983 35016 ft 488 kts 124°
2026-05-05 00:16 39.94045 -72.51668 35015 ft 490 kts 124°
2026-05-05 00:16 39.90195 -72.44388 35022 ft 490 kts 124°
2026-05-05 00:17 39.86322 -72.37081 35021 ft 490 kts 124°
2026-05-05 00:17 39.82438 -72.29773 35020 ft 490 kts 124°
2026-05-05 00:18 39.78574 -72.22518 35031 ft 490 kts 125°
2026-05-05 00:18 39.74693 -72.15246 35033 ft 492 kts 125°
2026-05-05 00:19 39.70788 -72.07947 35026 ft 491 kts 126°
2026-05-05 00:19 39.66881 -72.00661 35032 ft 490 kts 126°
2026-05-05 00:20 39.62972 -71.93387 35041 ft 490 kts 126°
2026-05-05 00:20 39.59087 -71.86176 35042 ft 491 kts 126°
2026-05-05 00:21 39.55161 -71.78899 35039 ft 491 kts 126°
2026-05-05 00:21 39.50843 -71.72116 35040 ft 485 kts 144°
2026-05-05 00:21 39.48026 -71.69883 35048 ft 478 kts 160°
2026-05-05 00:22 39.44931 -71.68329 35055 ft 478 kts 162°
2026-05-05 00:22 39.38667 -71.65376 35058 ft 476 kts 164°
2026-05-05 00:23 39.32462 -71.62568 35053 ft 475 kts 165°
2026-05-05 00:23 39.26212 -71.59769 35050 ft 475 kts 165°
2026-05-05 00:24 39.19991 -71.56842 35043 ft 478 kts 155°
2026-05-05 00:24 39.14372 -71.52252 35036 ft 482 kts 151°
2026-05-05 00:25 39.08725 -71.47572 35058 ft 482 kts 151°
2026-05-05 00:25 39.03104 -71.42884 35064 ft 481 kts 150°
2026-05-05 00:26 38.97473 -71.38194 35060 ft 481 kts 151°
2026-05-05 00:26 38.91875 -71.33541 35071 ft 481 kts 151°
2026-05-05 00:27 38.86239 -71.28864 35072 ft 481 kts 151°
2026-05-05 00:27 38.80619 -71.24209 35076 ft 481 kts 151°
2026-05-05 00:28 38.75026 -71.19586 35078 ft 481 kts 151°
2026-05-05 00:28 38.69381 -71.14929 35061 ft 481 kts 152°
2026-05-05 00:29 38.63782 -71.10319 35085 ft 481 kts 152°
2026-05-05 00:29 38.58150 -71.05690 35086 ft 481 kts 152°
2026-05-05 00:30 38.52495 -71.01051 35089 ft 481 kts 152°
2026-05-05 00:30 38.46891 -70.96462 35092 ft 481 kts 152°
2026-05-05 00:31 38.41246 -70.91849 35093 ft 481 kts 153°
2026-05-05 00:31 38.35629 -70.87267 35100 ft 482 kts 153°
2026-05-05 00:32 38.29967 -70.82657 35104 ft 483 kts 153°
2026-05-05 00:32 38.24294 -70.78047 35107 ft 483 kts 153°
2026-05-05 00:33 38.18618 -70.73443 35076 ft 483 kts 154°
2026-05-05 00:33 38.12960 -70.68862 35116 ft 486 kts 154°
2026-05-05 00:34 38.07238 -70.64236 35113 ft 485 kts 154°
2026-05-05 00:34 38.01564 -70.59658 35122 ft 485 kts 154°
2026-05-05 00:35 37.95656 -70.55645 35130 ft 479 kts 160°
2026-05-05 00:35 37.89706 -70.51891 35121 ft 481 kts 162°
2026-05-05 00:36 37.83685 -70.48110 35132 ft 482 kts 162°
2026-05-05 00:36 37.77669 -70.44340 35131 ft 482 kts 162°
2026-05-05 00:37 37.71695 -70.40603 35131 ft 482 kts 162°
2026-05-05 00:37 37.65681 -70.36849 35115 ft 482 kts 163°
2026-05-05 00:38 37.59665 -70.33099 35145 ft 482 kts 163°
2026-05-05 00:38 37.53640 -70.29351 35144 ft 482 kts 163°
2026-05-05 00:39 37.47614 -70.25609 35151 ft 482 kts 163°
2026-05-05 00:39 37.41595 -70.21878 35132 ft 482 kts 163°
2026-05-05 00:40 37.35630 -70.18187 35153 ft 478 kts 163°
2026-05-05 00:40 37.29670 -70.14505 35161 ft 476 kts 163°
2026-05-05 00:41 37.23711 -70.10831 35158 ft 476 kts 163°
2026-05-05 00:41 37.17790 -70.07187 35168 ft 476 kts 163°
2026-05-05 00:42 37.11872 -70.03551 35181 ft 471 kts 163°
2026-05-05 00:42 37.05989 -69.99943 35178 ft 470 kts 163°
2026-05-05 00:43 37.00095 -69.96334 35180 ft 470 kts 163°
2026-05-05 00:43 36.94230 -69.92750 35183 ft 470 kts 163°
2026-05-05 00:44 36.88347 -69.89160 35181 ft 468 kts 164°
2026-05-05 00:44 36.82524 -69.85614 35160 ft 466 kts 164°
2026-05-05 00:45 36.76713 -69.82080 35183 ft 463 kts 164°
2026-05-05 00:45 36.70921 -69.78564 35191 ft 463 kts 164°
2026-05-05 00:46 36.65165 -69.75075 35191 ft 463 kts 164°
2026-05-05 00:46 36.59365 -69.71567 35193 ft 463 kts 164°
2026-05-05 00:47 36.53565 -69.68063 35192 ft 463 kts 164°
2026-05-05 00:47 36.47795 -69.64584 35195 ft 463 kts 164°
2026-05-05 00:48 36.41987 -69.61088 35196 ft 463 kts 164°
2026-05-05 00:48 36.36195 -69.57607 35190 ft 462 kts 164°
2026-05-05 00:49 36.30443 -69.54156 35195 ft 461 kts 164°
2026-05-05 00:49 36.24659 -69.50690 35196 ft 460 kts 164°
2026-05-05 00:50 36.18928 -69.47262 35205 ft 459 kts 164°
2026-05-05 00:50 36.13432 -69.43011 35187 ft 475 kts 152°
2026-05-05 00:51 36.08191 -69.38032 35205 ft 474 kts 152°
2026-05-05 00:51 36.02991 -69.33067 35205 ft 474 kts 152°
2026-05-05 00:52 35.98621 -69.28896 35208 ft 474 kts 152°
2026-05-05 00:52 35.93417 -69.23936 35208 ft 474 kts 152°
2026-05-05 00:53 35.88220 -69.18992 35191 ft 474 kts 152°
2026-05-05 00:53 35.83010 -69.14043 35195 ft 470 kts 152°
2026-05-05 00:54 35.77817 -69.09120 35206 ft 469 kts 152°
2026-05-05 00:54 35.72670 -69.04248 35209 ft 469 kts 152°
2026-05-05 00:55 35.67485 -68.99348 35211 ft 469 kts 152°
2026-05-05 00:55 35.62288 -68.94445 35211 ft 469 kts 152°
2026-05-05 00:56 35.57133 -68.89590 35173 ft 469 kts 152°
2026-05-05 00:56 35.51943 -68.84711 35195 ft 468 kts 152°
2026-05-05 00:57 35.46815 -68.79896 35214 ft 465 kts 153°
2026-05-05 00:57 35.41660 -68.75066 35216 ft 465 kts 153°
2026-05-05 00:58 35.36551 -68.70285 35221 ft 465 kts 153°
2026-05-05 00:58 35.31402 -68.65476 35216 ft 465 kts 153°
2026-05-05 00:59 35.26274 -68.60695 35198 ft 464 kts 153°
2026-05-05 00:59 35.21126 -68.55901 35217 ft 464 kts 153°
2026-05-05 01:00 35.15986 -68.51124 35206 ft 463 kts 153°
2026-05-05 01:00 35.10870 -68.46376 35219 ft 461 kts 153°
2026-05-05 01:01 35.05787 -68.41667 35225 ft 461 kts 153°
2026-05-05 01:01 35.00670 -68.36933 35222 ft 461 kts 153°
2026-05-05 01:02 34.95579 -68.32232 35223 ft 460 kts 153°
2026-05-05 01:02 34.90467 -68.27519 35223 ft 460 kts 153°
2026-05-05 01:03 34.85359 -68.22816 35224 ft 460 kts 153°
2026-05-05 01:03 34.80272 -68.18142 35195 ft 460 kts 154°
2026-05-05 01:04 34.75175 -68.13464 35221 ft 456 kts 154°
2026-05-05 01:04 34.67588 -68.06515 35221 ft 456 kts 154°
2026-05-05 01:05 34.62519 -68.01881 35223 ft 456 kts 154°
2026-05-05 01:05 34.57444 -67.97250 35225 ft 456 kts 154°
2026-05-05 01:06 34.52368 -67.92625 35224 ft 456 kts 154°
2026-05-05 01:06 34.47298 -67.88012 35222 ft 456 kts 154°
2026-05-05 01:07 34.42248 -67.83425 35173 ft 456 kts 154°
2026-05-05 01:07 34.37163 -67.78813 35221 ft 456 kts 154°
2026-05-05 01:08 34.32115 -67.74242 35224 ft 455 kts 154°
2026-05-05 01:08 34.27025 -67.69639 35225 ft 455 kts 154°
2026-05-05 01:09 34.21980 -67.65082 35223 ft 455 kts 154°
2026-05-05 01:09 34.16897 -67.60499 35222 ft 455 kts 154°
2026-05-05 01:10 34.11676 -67.56323 35196 ft 444 kts 161°
2026-05-05 01:10 34.06362 -67.52539 35215 ft 446 kts 160°
2026-05-05 01:11 33.97894 -67.46404 35218 ft 443 kts 160°
2026-05-05 01:11 33.87275 -67.38741 35220 ft 444 kts 160°
2026-05-05 01:12 33.76742 -67.31127 35208 ft 444 kts 160°
2026-05-05 01:12 33.66143 -67.23503 35216 ft 444 kts 160°
2026-05-05 01:13 33.55551 -67.15926 35161 ft 441 kts 160°
2026-05-05 01:13 33.44968 -67.08358 35193 ft 442 kts 161°
2026-05-05 01:14 33.34369 -67.00789 35208 ft 443 kts 160°
2026-05-05 01:14 33.23831 -66.93320 35180 ft 443 kts 160°
2026-05-05 01:15 33.13159 -66.85750 35178 ft 444 kts 160°
2026-05-05 01:15 33.02574 -66.78264 35193 ft 443 kts 161°
2026-05-05 01:16 32.91921 -66.70760 35178 ft 445 kts 160°
2026-05-05 01:16 32.81334 -66.63319 35188 ft 444 kts 160°
2026-05-05 01:17 32.70887 -66.55998 35141 ft 444 kts 160°
2026-05-05 01:17 32.65242 -66.52044 35185 ft 439 kts 161°
2026-05-05 01:18 32.54694 -66.44682 35184 ft 440 kts 160°
2026-05-05 01:18 32.44131 -66.37344 35184 ft 439 kts 161°
2026-05-05 01:19 32.36809 -66.32244 35170 ft 438 kts 160°
2026-05-05 01:19 32.27185 -66.25569 35174 ft 438 kts 161°
2026-05-05 01:20 32.16667 -66.18331 35169 ft 435 kts 161°
2026-05-05 01:20 32.06286 -66.11156 35149 ft 434 kts 160°
2026-05-05 01:21 31.95829 -66.03990 35167 ft 433 kts 160°
2026-05-05 01:21 31.85402 -65.96811 35178 ft 433 kts 160°
2026-05-05 01:22 31.75035 -65.89735 35144 ft 433 kts 160°
2026-05-05 01:22 31.64581 -65.82621 35159 ft 434 kts 160°
2026-05-05 01:23 31.54127 -65.75503 35137 ft 433 kts 160°
2026-05-05 01:23 31.43682 -65.68407 35151 ft 434 kts 160°
2026-05-05 01:24 31.33276 -65.61364 35142 ft 433 kts 160°
2026-05-05 01:24 31.22770 -65.54288 35096 ft 436 kts 159°
2026-05-05 01:25 31.17134 -65.50488 35152 ft 439 kts 159°
2026-05-05 01:25 31.06592 -65.43405 35144 ft 439 kts 159°
2026-05-05 01:26 30.95984 -65.36296 35144 ft 439 kts 159°
2026-05-05 01:26 30.85440 -65.29246 35131 ft 439 kts 159°
2026-05-05 01:27 30.74816 -65.22150 35135 ft 440 kts 159°
2026-05-05 01:27 30.64169 -65.15082 35091 ft 441 kts 159°
2026-05-05 01:28 30.57796 -65.10840 35132 ft 445 kts 159°
2026-05-05 01:28 30.47092 -65.03753 35133 ft 445 kts 159°
2026-05-05 01:29 30.36327 -64.96628 35079 ft 445 kts 158°
2026-05-05 01:29 30.30164 -64.92569 35132 ft 450 kts 158°
2026-05-05 01:30 30.19587 -64.85602 35132 ft 450 kts 158°
2026-05-05 01:30 30.08710 -64.78476 35131 ft 449 kts 159°
2026-05-05 01:31 29.97804 -64.71341 35122 ft 451 kts 158°
2026-05-05 01:31 29.86949 -64.64227 35126 ft 450 kts 158°
2026-05-05 01:32 29.80139 -64.61061 35136 ft 425 kts 180°
2026-05-05 01:32 29.74228 -64.59827 35219 ft 436 kts 174°
2026-05-05 01:33 29.71248 -64.59090 35375 ft 438 kts 174°
2026-05-05 01:33 29.68303 -64.58349 35607 ft 438 kts 174°
2026-05-05 01:33 29.65333 -64.57596 35848 ft 437 kts 174°
2026-05-05 01:33 29.62362 -64.56842 36083 ft 436 kts 174°
2026-05-05 01:34 29.59399 -64.56091 36374 ft 434 kts 174°
2026-05-05 01:34 29.56453 -64.55344 36630 ft 433 kts 174°
2026-05-05 01:34 29.53504 -64.54596 36862 ft 432 kts 174°
2026-05-05 01:34 29.50568 -64.53853 37076 ft 431 kts 174°
2026-05-05 01:35 29.42889 -64.51909 37120 ft 432 kts 175°
2026-05-05 01:35 29.31202 -64.48958 37121 ft 432 kts 175°
2026-05-05 01:36 29.19420 -64.45999 37074 ft 433 kts 174°
2026-05-05 01:36 29.11945 -64.44103 37115 ft 437 kts 174°
2026-05-05 01:37 29.00159 -64.41147 37110 ft 436 kts 174°
2026-05-05 01:37 28.89463 -64.38466 37101 ft 438 kts 174°
2026-05-05 01:38 28.80537 -64.36238 37109 ft 440 kts 174°
2026-05-05 01:38 28.71578 -64.34001 37119 ft 444 kts 174°
2026-05-05 01:39 28.61974 -64.31606 37099 ft 445 kts 175°
2026-05-05 01:39 28.49867 -64.28591 37109 ft 445 kts 175°
2026-05-05 01:40 28.37751 -64.25595 37080 ft 446 kts 175°
2026-05-05 01:40 28.25653 -64.22588 37109 ft 447 kts 175°
2026-05-05 01:41 28.13499 -64.19593 37109 ft 446 kts 176°
2026-05-05 01:41 28.01318 -64.16601 37110 ft 447 kts 175°
2026-05-05 01:42 27.89216 -64.13609 37113 ft 447 kts 175°
2026-05-05 01:42 27.77052 -64.10637 37112 ft 447 kts 176°
2026-05-05 01:43 27.64915 -64.07665 37112 ft 448 kts 175°
2026-05-05 01:43 27.52715 -64.04678 37064 ft 448 kts 176°
2026-05-05 01:44 27.45684 -64.02971 37114 ft 447 kts 176°
2026-05-05 01:44 27.33483 -64.00008 37124 ft 447 kts 176°
2026-05-05 01:45 27.21395 -63.97068 37091 ft 447 kts 176°
2026-05-05 01:45 27.09176 -63.94121 37113 ft 449 kts 176°
2026-05-05 01:46 26.96954 -63.91157 37093 ft 449 kts 175°
2026-05-05 01:46 26.84792 -63.88227 37112 ft 450 kts 176°
2026-05-05 01:47 26.72529 -63.85285 37122 ft 450 kts 175°
2026-05-05 01:47 26.60257 -63.82326 37126 ft 452 kts 176°
2026-05-05 01:48 26.47914 -63.79370 37121 ft 453 kts 175°
2026-05-05 01:48 26.35583 -63.76431 37105 ft 453 kts 175°
2026-05-05 01:49 26.27510 -63.74510 37127 ft 456 kts 175°
2026-05-05 01:49 26.15058 -63.71553 37125 ft 456 kts 175°
2026-05-05 01:50 26.02679 -63.68599 37128 ft 458 kts 175°
2026-05-05 01:50 25.90213 -63.65646 37129 ft 458 kts 175°
2026-05-05 01:51 25.77710 -63.62689 37116 ft 459 kts 174°
2026-05-05 01:51 25.65195 -63.59734 37133 ft 459 kts 175°
2026-05-05 01:52 25.52722 -63.56809 37138 ft 459 kts 175°
2026-05-05 01:52 25.40163 -63.53846 37132 ft 462 kts 174°
2026-05-05 01:53 25.27596 -63.50882 37138 ft 461 kts 174°
2026-05-05 01:53 25.15086 -63.47980 37139 ft 461 kts 175°
2026-05-05 01:54 25.02499 -63.45031 37142 ft 462 kts 174°
2026-05-05 01:54 24.89975 -63.42095 37126 ft 462 kts 174°
2026-05-05 01:55 24.77352 -63.39174 37139 ft 463 kts 174°
2026-05-05 01:55 24.64812 -63.36267 37143 ft 463 kts 174°
2026-05-05 01:56 24.52172 -63.33328 37138 ft 464 kts 174°
2026-05-05 01:56 24.39526 -63.30413 37140 ft 464 kts 174°
2026-05-05 01:57 24.26859 -63.27487 37138 ft 466 kts 173°
2026-05-05 01:57 24.14233 -63.24586 37141 ft 465 kts 174°
2026-05-05 01:58 24.01536 -63.21678 37133 ft 465 kts 174°
2026-05-05 01:58 23.88828 -63.18769 37142 ft 466 kts 173°
2026-05-05 01:59 23.76195 -63.15856 37142 ft 466 kts 173°
2026-05-05 01:59 23.63444 -63.12949 37142 ft 468 kts 173°
2026-05-05 02:00 23.50650 -63.10036 37146 ft 469 kts 173°
2026-05-05 02:00 23.37847 -63.07119 37146 ft 471 kts 173°
2026-05-05 02:01 23.25084 -63.04236 37147 ft 471 kts 173°
2026-05-05 02:01 23.12231 -63.01311 37134 ft 472 kts 172°
2026-05-05 02:02 22.99311 -62.98381 37150 ft 473 kts 173°
2026-05-05 02:02 22.86509 -62.95515 37152 ft 473 kts 173°
2026-05-05 02:03 22.73592 -62.92594 37150 ft 474 kts 173°
2026-05-05 02:03 22.60624 -62.89690 37151 ft 474 kts 172°
2026-05-05 02:04 22.47760 -62.86797 37148 ft 475 kts 173°
2026-05-05 02:04 22.34768 -62.83885 37147 ft 476 kts 172°
2026-05-05 02:05 22.21860 -62.80997 37152 ft 477 kts 172°
2026-05-05 02:05 22.08839 -62.78093 37151 ft 477 kts 172°
2026-05-05 02:06 21.95815 -62.75195 37146 ft 477 kts 173°
2026-05-05 02:06 21.82762 -62.72281 37150 ft 479 kts 172°
2026-05-05 02:07 21.70742 -62.69611 37151 ft 479 kts 172°
2026-05-05 02:07 21.64193 -62.68172 37137 ft 479 kts 172°
2026-05-05 02:08 21.57688 -62.66733 37153 ft 480 kts 172°
2026-05-05 02:08 21.51118 -62.65280 37148 ft 480 kts 172°
2026-05-05 02:09 21.44608 -62.63841 37142 ft 480 kts 172°
2026-05-05 02:09 21.37452 -62.62324 37148 ft 479 kts 174°
2026-05-05 02:10 21.24272 -62.59721 37141 ft 481 kts 173°
2026-05-05 02:10 21.11180 -62.57098 37137 ft 481 kts 173°
2026-05-05 02:11 20.97975 -62.54466 37132 ft 482 kts 173°
2026-05-05 02:11 20.84826 -62.51885 37128 ft 483 kts 172°
2026-05-05 02:12 20.64997 -62.47962 37128 ft 484 kts 172°
2026-05-05 02:13 20.51737 -62.45343 37127 ft 484 kts 172°
2026-05-05 02:13 20.38451 -62.42728 37123 ft 484 kts 173°
2026-05-05 02:14 20.25236 -62.40147 37125 ft 485 kts 172°
2026-05-05 02:14 20.11907 -62.37515 37124 ft 485 kts 172°
2026-05-05 02:15 19.98691 -62.34950 37123 ft 485 kts 172°
2026-05-05 02:15 19.85382 -62.32340 37124 ft 486 kts 172°
2026-05-05 02:16 19.72064 -62.29739 37117 ft 486 kts 172°
2026-05-05 02:16 19.58836 -62.27171 37120 ft 486 kts 172°
2026-05-05 02:17 19.45504 -62.24589 37109 ft 486 kts 172°
2026-05-05 02:17 19.32166 -62.22000 37114 ft 487 kts 171°
2026-05-05 02:18 19.18889 -62.19416 37114 ft 487 kts 172°
2026-05-05 02:18 19.05530 -62.16842 37114 ft 487 kts 172°
2026-05-05 02:19 18.92165 -62.14280 37114 ft 487 kts 172°
2026-05-05 02:19 18.78882 -62.11714 37111 ft 487 kts 171°
2026-05-05 02:20 18.65536 -62.09141 37112 ft 487 kts 171°
2026-05-05 02:20 18.52183 -62.06591 37107 ft 487 kts 171°
2026-05-05 02:21 18.38817 -62.04026 37107 ft 487 kts 171°
2026-05-05 02:21 18.25525 -62.01489 37108 ft 487 kts 172°
2026-05-05 02:22 18.12206 -61.98948 37104 ft 487 kts 171°
2026-05-05 02:22 17.98826 -61.96379 37100 ft 487 kts 171°
2026-05-05 02:23 17.85467 -61.93834 37096 ft 487 kts 171°
2026-05-05 02:23 17.74472 -61.91753 37090 ft 487 kts 171°
2026-05-05 02:24 17.62142 -61.89414 37089 ft 488 kts 170°
2026-05-05 02:24 17.48769 -61.86864 37080 ft 487 kts 171°
2026-05-05 02:25 17.35489 -61.84355 37091 ft 487 kts 170°
2026-05-05 02:25 17.27270 -61.82800 37100 ft 487 kts 170°
2026-05-05 02:26 17.20593 -61.81530 37102 ft 487 kts 170°
2026-05-05 02:26 17.13979 -61.80222 37093 ft 487 kts 163°
2026-05-05 02:26 17.10853 -61.78874 37096 ft 484 kts 150°
2026-05-05 02:27 17.07886 -61.77185 37087 ft 487 kts 151°
2026-05-05 02:27 17.02939 -61.74360 37101 ft 487 kts 150°
2026-05-05 02:28 16.91172 -61.67510 37081 ft 487 kts 150°
2026-05-05 02:28 16.81261 -61.61729 37069 ft 487 kts 150°
2026-05-05 02:29 16.69489 -61.54872 37070 ft 487 kts 150°
2026-05-05 02:29 16.57649 -61.47968 37069 ft 487 kts 150°
2026-05-05 02:30 16.45879 -61.41157 37073 ft 486 kts 150°
2026-05-05 02:30 16.34010 -61.34284 37075 ft 487 kts 150°
2026-05-05 02:31 16.22163 -61.27411 37075 ft 487 kts 149°
2026-05-05 02:31 16.10322 -61.20544 37077 ft 487 kts 150°
2026-05-05 02:32 15.98529 -61.13756 37075 ft 487 kts 150°
2026-05-05 02:32 15.86669 -61.06901 37078 ft 487 kts 150°
2026-05-05 02:33 15.74857 -61.00092 37080 ft 487 kts 150°
2026-05-05 02:33 15.62981 -60.93279 37078 ft 487 kts 150°
2026-05-05 02:34 15.51114 -60.86450 37075 ft 486 kts 150°
2026-05-05 02:34 15.39347 -60.79702 37075 ft 486 kts 150°
2026-05-05 02:35 15.27473 -60.72912 37082 ft 485 kts 149°
2026-05-05 02:35 15.17485 -60.67193 37072 ft 483 kts 150°
2026-05-05 02:36 15.11636 -60.63837 37072 ft 483 kts 150°
2026-05-05 02:36 15.05748 -60.60472 37067 ft 483 kts 150°
2026-05-05 02:37 14.99885 -60.57124 37069 ft 483 kts 150°
2026-05-05 02:37 14.94002 -60.53767 37058 ft 483 kts 150°
2026-05-05 02:38 14.88114 -60.50409 37061 ft 482 kts 150°
2026-05-05 02:38 14.82230 -60.47055 37061 ft 482 kts 150°
2026-05-05 02:39 14.76384 -60.43725 37052 ft 481 kts 150°
2026-05-05 02:39 14.70505 -60.40378 37050 ft 480 kts 150°
2026-05-05 02:40 14.64612 -60.37202 37050 ft 480 kts 156°
2026-05-05 02:40 14.61559 -60.35850 36563 ft 477 kts 156°
2026-05-05 02:40 14.58479 -60.34498 35389 ft 486 kts 156°
2026-05-05 02:40 14.55329 -60.33125 34191 ft 496 kts 156°
2026-05-05 02:41 14.52145 -60.31740 33377 ft 494 kts 156°
2026-05-05 02:41 14.48986 -60.30367 32630 ft 490 kts 156°
2026-05-05 02:41 14.45854 -60.29006 31757 ft 488 kts 156°
2026-05-05 02:41 14.42761 -60.27662 30811 ft 488 kts 156°
2026-05-05 02:42 14.39632 -60.26303 29825 ft 488 kts 156°
2026-05-05 02:42 14.36501 -60.24943 28678 ft 488 kts 155°
2026-05-05 02:42 14.33365 -60.23582 27494 ft 489 kts 155°
2026-05-05 02:42 14.30224 -60.22220 26297 ft 489 kts 155°
2026-05-05 02:43 14.27084 -60.20857 25233 ft 488 kts 155°
2026-05-05 02:43 14.23966 -60.19506 24370 ft 481 kts 155°
2026-05-05 02:43 14.20900 -60.18176 23545 ft 474 kts 155°
2026-05-05 02:43 14.17915 -60.16883 22484 ft 469 kts 155°
2026-05-05 02:44 14.14930 -60.15590 21732 ft 459 kts 155°
2026-05-05 02:44 14.12016 -60.14328 21097 ft 448 kts 155°
2026-05-05 02:44 14.09167 -60.13094 20434 ft 441 kts 155°
2026-05-05 02:44 14.06342 -60.11871 19770 ft 439 kts 155°
2026-05-05 02:45 14.03504 -60.10642 19109 ft 442 kts 155°
2026-05-05 02:45 14.00696 -60.09428 18438 ft 444 kts 156°
2026-05-05 02:45 13.97840 -60.08192 17701 ft 442 kts 155°
2026-05-05 02:45 13.95013 -60.06970 17025 ft 440 kts 156°
2026-05-05 02:46 13.92199 -60.05753 16368 ft 436 kts 155°
2026-05-05 02:46 13.89415 -60.04549 15843 ft 430 kts 155°
2026-05-05 02:46 13.86656 -60.03357 15143 ft 429 kts 155°
2026-05-05 02:46 13.83940 -60.02184 14387 ft 417 kts 155°
2026-05-05 02:47 13.81309 -60.01047 13428 ft 410 kts 155°
2026-05-05 02:47 13.78701 -59.99922 12441 ft 402 kts 155°
2026-05-05 02:47 13.76136 -59.98815 11503 ft 395 kts 155°
2026-05-05 02:47 13.73655 -59.97744 10631 ft 387 kts 155°
2026-05-05 02:48 13.71188 -59.96680 9786 ft 380 kts 155°
2026-05-05 02:48 13.68776 -59.95640 8924 ft 371 kts 155°
2026-05-05 02:48 13.66422 -59.94624 8187 ft 361 kts 155°
2026-05-05 02:48 13.64128 -59.93635 7493 ft 351 kts 155°
2026-05-05 02:49 13.61940 -59.92693 6883 ft 340 kts 155°
2026-05-05 02:49 13.59788 -59.91764 6328 ft 329 kts 155°
2026-05-05 02:49 13.57747 -59.90885 6211 ft 304 kts 155°
2026-05-05 02:49 13.55870 -59.90076 6186 ft 280 kts 155°
2026-05-05 02:50 13.54142 -59.89331 6163 ft 259 kts 155°
2026-05-05 02:50 13.52481 -59.88616 6133 ft 257 kts 155°
2026-05-05 02:50 13.50857 -59.87917 6076 ft 257 kts 155°
2026-05-05 02:50 13.49203 -59.87204 6059 ft 258 kts 155°
2026-05-05 02:51 13.47542 -59.86489 6043 ft 258 kts 155°
2026-05-05 02:51 13.45885 -59.85776 6047 ft 258 kts 155°
2026-05-05 02:51 13.44224 -59.85060 6037 ft 257 kts 155°
2026-05-05 02:51 13.42590 -59.84358 6035 ft 257 kts 155°
2026-05-05 02:52 13.40933 -59.83645 6048 ft 257 kts 155°
2026-05-05 02:52 13.39285 -59.82936 6050 ft 257 kts 155°
2026-05-05 02:52 13.37627 -59.82223 6030 ft 257 kts 155°
2026-05-05 02:52 13.35991 -59.81519 6028 ft 257 kts 155°
2026-05-05 02:53 13.34334 -59.80807 6034 ft 258 kts 155°
2026-05-05 02:53 13.32681 -59.80097 6024 ft 257 kts 155°
2026-05-05 02:53 13.31031 -59.79386 6031 ft 257 kts 155°
2026-05-05 02:53 13.29378 -59.78676 6027 ft 257 kts 155°
2026-05-05 02:54 13.27746 -59.77975 6030 ft 257 kts 155°
2026-05-05 02:54 13.26089 -59.77263 6023 ft 256 kts 155°
2026-05-05 02:54 13.24444 -59.76555 6038 ft 256 kts 155°
2026-05-05 02:54 13.22802 -59.75850 6035 ft 255 kts 155°
2026-05-05 02:55 13.21183 -59.75155 6033 ft 256 kts 155°
2026-05-05 02:55 13.19539 -59.74449 6043 ft 256 kts 155°
2026-05-05 02:55 13.17899 -59.73745 5896 ft 256 kts 155°
2026-05-05 02:55 13.16259 -59.73040 5406 ft 255 kts 154°
2026-05-05 02:56 13.14627 -59.72339 4931 ft 254 kts 154°
2026-05-05 02:56 13.13013 -59.71647 4549 ft 248 kts 154°
2026-05-05 02:56 13.11397 -59.71104 4242 ft 240 kts 163°
2026-05-05 02:56 13.09802 -59.70713 4014 ft 230 kts 162°
2026-05-05 02:57 13.08286 -59.70329 3826 ft 218 kts 162°
2026-05-05 02:57 13.06869 -59.69963 3708 ft 204 kts 161°
2026-05-05 02:57 13.05535 -59.69614 3577 ft 192 kts 161°
2026-05-05 02:57 13.04299 -59.69211 3412 ft 180 kts 144°
2026-05-05 02:58 13.03502 -59.68318 3226 ft 168 kts 112°
2026-05-05 02:58 13.03304 -59.67155 3098 ft 168 kts 85°
2026-05-05 02:58 13.03496 -59.65977 2951 ft 167 kts 80°
2026-05-05 02:58 13.03734 -59.64815 2741 ft 167 kts 79°
2026-05-05 02:59 13.03986 -59.63657 2589 ft 165 kts 78°
2026-05-05 02:59 13.04245 -59.62513 2443 ft 165 kts 78°
2026-05-05 02:59 13.04503 -59.61399 2313 ft 159 kts 77°
2026-05-05 02:59 13.04758 -59.60313 2143 ft 154 kts 78°
2026-05-05 03:00 13.05012 -59.59252 1918 ft 152 kts 78°
2026-05-05 03:00 13.05260 -59.58220 1720 ft 144 kts 77°
2026-05-05 03:00 13.05497 -59.57243 1492 ft 139 kts 77°
2026-05-05 03:00 13.05728 -59.56287 1282 ft 138 kts 78°
2026-05-05 03:01 13.05959 -59.55337 1112 ft 137 kts 77°
2026-05-05 03:01 13.06194 -59.54381 898 ft 139 kts 77°
2026-05-05 03:01 13.06426 -59.53428 742 ft 138 kts 76°
2026-05-05 03:01 13.06658 -59.52485 633 ft 135 kts 76°
2026-05-05 03:02 13.06879 -59.51557 382 ft 136 kts 75°
2026-05-05 03:02 13.07120 -59.50609 193 ft 140 kts 76°
2026-05-05 03:02 13.07347 -59.49678 178 ft 125 kts 77°
2026-05-05 03:02 13.07503 -59.49048 177 ft 57 kts 76°
2026-05-05 03:03 13.07593 -59.48681 177 ft 47 kts 75°
2026-05-05 03:03 13.07651 -59.48445 175 ft 11 kts 76°
2026-05-05 03:03 13.07673 -59.48362 174 ft 6 kts 70°
2026-05-05 03:03 13.07674 -59.48358 174 ft 0 kts 70°
2026-05-05 03:04 13.07693 -59.48337 174 ft 10 kts 30°
2026-05-05 03:04 13.07769 -59.48345 176 ft 12 kts 345°
2026-05-05 03:05 13.07837 -59.48367 177 ft 9 kts 327°
2026-05-05 03:05 13.07858 -59.48425 178 ft 10 kts 265°
2026-05-05 03:05 13.07844 -59.48500 178 ft 12 kts 255°
2026-05-05 03:05 13.07819 -59.48588 178 ft 14 kts 256°
2026-05-05 03:06 13.07796 -59.48683 178 ft 13 kts 255°
2026-05-05 03:06 13.07772 -59.48765 178 ft 12 kts 253°
2026-05-05 03:06 13.07765 -59.48843 178 ft 7 kts 296°
2026-05-05 03:06 13.07812 -59.48865 179 ft 9 kts 345°
2026-05-05 03:07 13.07847 -59.48874 179 ft 0 kts 346°